QPF
0.09 0.08 0.08 0.05 0.03 0.02 0.02 0.03 0.04 0.05 0.03 0.02 0.02 0.02 0.02 0.01 0.01 0.01 0.01 0.01 0.01 0.02 0.02 0.02 0.02 0.02 0.02 0.02 0.03 0.04 0.05 0.04 0.06 0.06 0.06 0.07 0.08 0.07
0.07 0.06 0.05 0.05 0.03 0.02 0.02 0.02 0.02 0.04 0.04 0.02 0.02 0.03 0.02 0.01 0.01 0.01 0.01 0.01 0.01 0.02 0.02 0.02 0.02 0.02 0.02 0.02 0.03 0.04 0.05 0.05 0.06 0.06 0.05 0.06 0.06 0.05
0.05 0.03 0.03 0.03 0.02 0.02 0.02 0.01 0.02 0.02 0.03 0.03 0.02 0.03 0.03 0.02 0.02 0.02 0.02 0.01 0.02 0.02 0.02 0.02 0.03 0.02 0.03 0.02 0.02 0.02 0.03 0.05 0.06 0.06 0.04 0.05 0.05 0.04
0.04 0.04 0.03 0.03 0.01 0.01 0.01 0.01 0.01 0.01 0.01 0.03 0.03 0.03 0.04 0.03 0.02 0.02 0.01 0.02 0.02 0.03 0.03 0.03 0.02 0.02 0.02 0.02 0.03 0.02 0.02 0.04 0.06 0.05 0.05 0.04 0.04 0.04
0.03 0.03 0.02 0.03 0.02 0.01 0.01 0.02 0.02 0.02 0.02 0.03 0.03 0.04 0.04 0.04 0.03 0.02 0.02 0.02 0.03 0.03 0.03 0.03 0.03 0.03 0.03 0.03 0.03 0.03 0.03 0.03 0.05 0.05 0.04 0.03 0.03 0.03
0.02 0.02 0.02 0.02 0.02 0.02 0.02 0.02 0.02 0.02 0.03 0.03 0.02 0.02 0.02 0.03 0.02 0.02 0.02 0.02 0.03 0.03 0.03 0.03 0.03 0.04 0.04 0.05 0.05 0.04 0.04 0.04 0.05 0.05 0.05 0.03 0.02 0.02
0.02 0.01 0.02 0.02 0.02 0.02 0.01 0.01 0.01 0.01 0.01 0.02 0.01 0.01 0.02 0.02 0.02 0.01 0.01 0.02 0.03 0.03 0.03 0.04 0.04 0.05 0.07 0.08 0.08 0.08 0.07 0.07 0.07 0.06 0.07 0.06 0.03 0.02
0.01 0.01 0.01 0.02 0.02 0.02 0.02 0.01 0.01 0.01 0.01 0.01 0.01 0.01 0.01 0.02 0.02 0.02 0.01 0.02 0.03 0.04 0.04 0.03 0.03 0.04 0.06 0.07 0.08 0.08 0.07 0.08 0.09 0.08 0.08 0.08 0.06 0.03
0.01 0.01 0.01 0.01 0.01 0.01 0.02 0.02 0.01 0.01 0.01 0.01 0.01 0.01 0.01 0.01 0.02 0.02 0.03 0.02 0.03 0.02 0.03 0.04 0.03 0.03 0.04 0.04 0.05 0.06 0.07 0.07 0.08 0.08 0.08 0.08 0.07 0.05
0.01 0.01 0.02 0.02 0.02 0.01 0.01 0.01 0.01 0.01 0.00 0.00 0.01 0.01 0.01 0.01 0.02 0.03 0.04 0.04 0.03 0.04 0.04 0.05 0.04 0.04 0.03 0.03 0.04 0.04 0.05 0.06 0.07 0.07 0.08 0.07 0.07 0.06
0.01 0.01 0.02 0.01 0.01 0.01 0.01 0.01 0.01 0.00 0.00 0.01 0.01 0.01 0.01 0.01 0.01 0.02 0.03 0.04 0.05 0.06 0.05 0.05 0.05 0.04 0.04 0.04 0.04 0.04 0.04 0.05 0.06 0.07 0.08 0.09 0.07 0.07
0.01 0.01 0.01 0.01 0.01 0.01 0.01 0.01 0.01 0.01 0.01 0.00 0.01 0.01 0.01 0.01 0.01 0.01 0.02 0.03 0.04 0.06 0.06 0.06 0.06 0.05 0.05 0.05 0.04 0.04 0.04 0.06 0.07 0.08 0.08 0.09 0.09 0.07
0.01 0.01 0.01 0.01 0.01 0.01 0.01 0.01 0.01 0.01 0.01 0.01 0.01 0.00 0.01 0.01 0.01 0.01 0.01 0.02 0.02 0.03 0.03 0.04 0.04 0.03 0.05 0.06 0.05 0.05 0.05 0.05 0.06 0.07 0.09 0.10 0.10 0.07
0.01 0.01 0.00 0.00 0.00 0.00 0.00 0.01 0.00 0.00 0.00 0.00 0.00 0.00 0.00 0.01 0.01 0.01 0.01 0.01 0.01 0.01 0.02 0.03 0.04 0.04 0.04 0.04 0.04 0.04 0.04 0.06 0.05 0.05 0.06 0.09 0.10 0.08
0.00 0.00 0.00 0.00 0.01 0.00 0.00 0.01 0.01 0.01 0.01 0.01 0.01 0.01 0.01 0.01 0.02 0.02 0.02 0.02 0.01 0.01 0.02 0.03 0.04 0.05 0.05 0.05 0.03 0.02 0.03 0.05 0.05 0.05 0.05 0.06 0.07 0.07
0.01 0.01 0.01 0.01 0.01 0.00 0.00 0.00 0.00 0.00 0.01 0.01 0.01 0.01 0.01 0.01 0.02 0.02 0.03 0.03 0.02 0.02 0.02 0.03 0.03 0.04 0.05 0.04 0.03 0.03 0.03 0.04 0.05 0.04 0.04 0.05 0.06 0.07
0.00 0.00 0.00 0.00 0.00 0.00 0.00 0.00 0.00 0.00 0.00 0.00 0.00 0.01 0.01 0.01 0.01 0.01 0.02 0.02 0.02 0.02 0.01 0.01 0.01 0.01 0.02 0.02 0.02 0.03 0.02 0.03 0.03 0.03 0.03 0.04 0.04 0.05
0.00 0.00 0.01 0.01 0.01 0.00 0.00 0.00 0.00 0.01 0.01 0.01 0.01 0.01 0.01 0.01 0.02 0.02 0.03 0.03 0.02 0.02 0.02 0.01 0.01 0.01 0.01 0.01 0.02 0.03 0.03 0.03 0.02 0.02 0.02 0.03 0.03 0.03
0.01 0.01 0.01 0.01 0.01 0.00 0.00 0.00 0.00 0.01 0.01 0.01 0.01 0.01 0.01 0.01 0.02 0.02 0.03 0.03 0.03 0.02 0.02 0.01 0.02 0.02 0.02 0.02 0.02 0.03 0.04 0.03 0.02 0.03 0.02 0.02 0.01 0.02
0.02 0.01 0.01 0.01 0.01 0.00 0.00 0.00 0.01 0.01 0.01 0.01 0.02 0.01 0.01 0.01 0.02 0.02 0.02 0.03 0.03 0.03 0.04 0.03 0.02 0.02 0.02 0.02 0.03 0.04 0.04 0.03 0.02 0.03 0.03 0.02 0.02 0.02
0.01 0.01 0.01 0.01 0.01 0.01 0.01 0.01 0.01 0.01 0.01 0.02 0.01 0.01 0.01 0.02 0.02 0.02 0.02 0.03 0.03 0.03 0.03 0.03 0.03 0.02 0.02 0.02 0.02 0.03 0.04 0.04 0.04 0.03 0.03 0.02 0.02 0.02
0.01 0.01 0.01 0.01 0.01 0.01 0.01 0.02 0.02 0.02 0.01 0.01 0.01 0.02 0.02 0.02 0.02 0.02 0.02 0.03 0.03 0.02 0.02 0.02 0.02 0.02 0.02 0.02 0.02 0.02 0.02 0.03 0.03 0.03 0.03 0.02 0.01 0.01
0.02 0.02 0.01 0.01 0.01 0.01 0.01 0.02 0.02 0.02 0.01 0.01 0.01 0.02 0.02 0.02 0.02 0.02 0.02 0.02 0.02 0.02 0.02 0.02 0.02 0.02 0.01 0.01 0.01 0.01 0.02 0.02 0.02 0.01 0.02 0.02 0.01 0.01
MSLP
1012.77 1012.89 1013.02 1013.12 1013.16 1013.11 1012.96 1012.71 1012.35 1011.93 1011.45 1010.95 1010.46 1010.00 1009.57 1009.19 1008.85 1008.53 1008.25 1008.00 1007.78 1007.59 1007.45 1007.35 1007.29 1007.30 1007.35 1007.43 1007.54 1007.65 1007.75 1007.81 1007.83 1007.81 1007.77 1007.71 1007.68 1007.70
1013.23 1013.32 1013.41 1013.48 1013.49 1013.41 1013.24 1012.97 1012.60 1012.16 1011.67 1011.16 1010.65 1010.15 1009.67 1009.22 1008.79 1008.39 1008.01 1007.66 1007.33 1007.05 1006.82 1006.65 1006.55 1006.53 1006.57 1006.67 1006.81 1006.97 1007.12 1007.25 1007.34 1007.39 1007.41 1007.42 1007.43 1007.48
1013.65 1013.70 1013.75 1013.77 1013.75 1013.65 1013.47 1013.19 1012.83 1012.40 1011.92 1011.41 1010.89 1010.37 1009.85 1009.34 1008.83 1008.33 1007.84 1007.37 1006.93 1006.53 1006.19 1005.93 1005.77 1005.70 1005.72 1005.82 1005.98 1006.18 1006.39 1006.59 1006.77 1006.91 1007.02 1007.12 1007.22 1007.35
1014.03 1014.03 1014.02 1014.01 1013.95 1013.82 1013.63 1013.36 1013.01 1012.61 1012.15 1011.66 1011.15 1010.62 1010.07 1009.50 1008.92 1008.33 1007.73 1007.13 1006.57 1006.05 1005.60 1005.25 1005.00 1004.86 1004.84 1004.92 1005.08 1005.30 1005.56 1005.82 1006.08 1006.32 1006.54 1006.75 1006.97 1007.19
1014.36 1014.29 1014.23 1014.17 1014.07 1013.92 1013.72 1013.45 1013.13 1012.75 1012.33 1011.86 1011.37 1010.83 1010.27 1009.66 1009.02 1008.35 1007.65 1006.95 1006.28 1005.65 1005.09 1004.63 1004.29 1004.08 1004.00 1004.03 1004.17 1004.39 1004.67 1004.97 1005.29 1005.62 1005.94 1006.27 1006.60 1006.95
1014.65 1014.52 1014.40 1014.28 1014.14 1013.96 1013.74 1013.48 1013.17 1012.81 1012.41 1011.98 1011.50 1010.98 1010.41 1009.78 1009.10 1008.37 1007.61 1006.83 1006.07 1005.35 1004.70 1004.15 1003.72 1003.43 1003.27 1003.24 1003.33 1003.51 1003.77 1004.09 1004.44 1004.82 1005.22 1005.64 1006.09 1006.56
1014.92 1014.72 1014.54 1014.35 1014.17 1013.95 1013.71 1013.43 1013.13 1012.78 1012.41 1011.99 1011.53 1011.02 1010.46 1009.83 1009.14 1008.39 1007.59 1006.77 1005.96 1005.18 1004.46 1003.85 1003.34 1002.97 1002.73 1002.62 1002.63 1002.75 1002.95 1003.23 1003.58 1003.97 1004.41 1004.90 1005.43 1005.99
1015.17 1014.91 1014.66 1014.41 1014.17 1013.91 1013.63 1013.34 1013.02 1012.67 1012.30 1011.90 1011.46 1010.97 1010.42 1009.81 1009.13 1008.39 1007.59 1006.77 1005.94 1005.14 1004.40 1003.73 1003.17 1002.73 1002.42 1002.22 1002.14 1002.17 1002.29 1002.50 1002.79 1003.15 1003.59 1004.09 1004.66 1005.28
1015.40 1015.09 1014.78 1014.48 1014.17 1013.87 1013.55 1013.21 1012.87 1012.51 1012.13 1011.74 1011.31 1010.84 1010.31 1009.73 1009.08 1008.37 1007.61 1006.82 1006.01 1005.23 1004.49 1003.81 1003.23 1002.74 1002.35 1002.08 1001.90 1001.83 1001.84 1001.95 1002.15 1002.44 1002.83 1003.30 1003.86 1004.49
1015.65 1015.28 1014.92 1014.57 1014.21 1013.85 1013.47 1013.10 1012.72 1012.34 1011.95 1011.55 1011.12 1010.66 1010.16 1009.61 1009.00 1008.34 1007.63 1006.89 1006.14 1005.40 1004.69 1004.05 1003.46 1002.95 1002.52 1002.18 1001.92 1001.74 1001.65 1001.64 1001.73 1001.92 1002.21 1002.61 1003.12 1003.71
1015.91 1015.50 1015.09 1014.69 1014.28 1013.87 1013.45 1013.03 1012.61 1012.19 1011.78 1011.36 1010.93 1010.48 1009.99 1009.47 1008.89 1008.28 1007.63 1006.95 1006.27 1005.59 1004.94 1004.34 1003.78 1003.29 1002.85 1002.47 1002.15 1001.89 1001.69 1001.58 1001.55 1001.62 1001.81 1002.11 1002.53 1003.05
1016.19 1015.75 1015.31 1014.86 1014.41 1013.94 1013.48 1013.01 1012.55 1012.10 1011.66 1011.21 1010.77 1010.31 1009.82 1009.31 1008.75 1008.17 1007.57 1006.95 1006.33 1005.72 1005.15 1004.60 1004.11 1003.65 1003.23 1002.85 1002.51 1002.20 1001.94 1001.73 1001.60 1001.57 1001.64 1001.83 1002.15 1002.59
1016.50 1016.04 1015.57 1015.08 1014.59 1014.08 1013.57 1013.07 1012.57 1012.07 1011.59 1011.11 1010.63 1010.15 1009.64 1009.11 1008.55 1007.99 1007.40 1006.82 1006.25 1005.71 1005.21 1004.75 1004.33 1003.94 1003.58 1003.23 1002.91 1002.59 1002.30 1002.05 1001.85 1001.73 1001.71 1001.80 1002.01 1002.35
1016.83 1016.36 1015.87 1015.35 1014.82 1014.28 1013.73 1013.18 1012.63 1012.10 1011.57 1011.04 1010.51 1009.98 1009.43 1008.86 1008.28 1007.69 1007.10 1006.54 1006.01 1005.52 1005.08 1004.70 1004.37 1004.07 1003.79 1003.53 1003.25 1002.98 1002.71 1002.45 1002.22 1002.05 1001.96 1001.97 1002.09 1002.33
1017.19 1016.70 1016.19 1015.65 1015.08 1014.51 1013.92 1013.33 1012.74 1012.16 1011.57 1010.99 1010.40 1009.79 1009.17 1008.54 1007.91 1007.27 1006.65 1006.08 1005.56 1005.11 1004.73 1004.43 1004.19 1003.99 1003.82 1003.66 1003.48 1003.29 1003.07 1002.85 1002.63 1002.45 1002.32 1002.27 1002.33 1002.48
1017.54 1017.05 1016.52 1015.96 1015.37 1014.75 1014.13 1013.50 1012.87 1012.23 1011.59 1010.93 1010.27 1009.59 1008.88 1008.17 1007.45 1006.75 1006.08 1005.48 1004.95 1004.52 1004.19 1003.95 1003.80 1003.71 1003.65 1003.61 1003.55 1003.45 1003.33 1003.17 1003.00 1002.83 1002.70 1002.63 1002.63 1002.72
1017.87 1017.39 1016.85 1016.27 1015.66 1015.02 1014.36 1013.69 1013.01 1012.32 1011.61 1010.89 1010.14 1009.37 1008.57 1007.77 1006.96 1006.18 1005.45 1004.79 1004.25 1003.81 1003.51 1003.33 1003.25 1003.25 1003.31 1003.38 1003.44 1003.46 1003.43 1003.36 1003.25 1003.13 1003.01 1002.93 1002.91 1002.95
1018.20 1017.72 1017.19 1016.60 1015.97 1015.31 1014.62 1013.91 1013.19 1012.44 1011.68 1010.88 1010.05 1009.20 1008.31 1007.41 1006.52 1005.65 1004.85 1004.15 1003.56 1003.12 1002.82 1002.67 1002.65 1002.72 1002.86 1003.02 1003.18 1003.31 1003.38 1003.39 1003.36 1003.29 1003.20 1003.13 1003.09 1003.10
1018.52 1018.06 1017.54 1016.95 1016.32 1015.64 1014.93 1014.19 1013.42 1012.63 1011.81 1010.96 1010.06 1009.13 1008.17 1007.19 1006.21 1005.28 1004.41 1003.65 1003.02 1002.55 1002.24 1002.10 1002.09 1002.20 1002.39 1002.62 1002.85 1003.05 1003.20 1003.29 1003.31 1003.30 1003.25 1003.19 1003.15 1003.15
1018.85 1018.42 1017.92 1017.35 1016.71 1016.03 1015.30 1014.54 1013.75 1012.93 1012.06 1011.16 1010.21 1009.23 1008.21 1007.17 1006.13 1005.14 1004.22 1003.41 1002.73 1002.23 1001.89 1001.72 1001.70 1001.81 1002.01 1002.26 1002.52 1002.76 1002.96 1003.09 1003.17 1003.19 1003.18 1003.15 1003.11 1003.10
1019.21 1018.81 1018.33 1017.78 1017.16 1016.48 1015.76 1014.99 1014.18 1013.34 1012.45 1011.52 1010.55 1009.53 1008.47 1007.40 1006.33 1005.30 1004.34 1003.49 1002.77 1002.22 1001.84 1001.62 1001.56 1001.63 1001.80 1002.03 1002.27 1002.52 1002.73 1002.89 1002.99 1003.05 1003.07 1003.06 1003.05 1003.04
1019.59 1019.23 1018.78 1018.25 1017.65 1016.99 1016.28 1015.51 1014.71 1013.87 1012.97 1012.04 1011.06 1010.03 1008.97 1007.89 1006.82 1005.78 1004.80 1003.92 1003.17 1002.57 1002.13 1001.85 1001.73 1001.72 1001.83 1001.99 1002.19 1002.41 1002.59 1002.75 1002.87 1002.95 1003.00 1003.03 1003.04 1003.05
1019.96 1019.64 1019.22 1018.73 1018.16 1017.52 1016.83 1016.09 1015.30 1014.47 1013.59 1012.68 1011.72 1010.71 1009.67 1008.62 1007.57 1006.54 1005.57 1004.68 1003.91 1003.27 1002.78 1002.43 1002.22 1002.13 1002.14 1002.23 1002.35 1002.51 1002.66 1002.80 1002.92 1003.01 1003.09 1003.15 1003.20 1003.24
Thickness
5629 5626 5623 5620 5617 5614 5611 5608 5604 5603 5605 5606 5605 5605 5603 5602 5601 5601 5601 5601 5602 5603 5604 5606 5608 5609 5612 5614 5616 5618 5619 5621 5623 5625 5628 5630 5633 5635
5624 5621 5617 5614 5610 5607 5604 5601 5597 5594 5594 5596 5594 5594 5592 5592 5591 5590 5590 5591 5592 5592 5594 5596 5598 5600 5602 5604 5607 5609 5611 5613 5615 5618 5620 5623 5625 5628
5619 5616 5612 5608 5604 5601 5598 5594 5590 5586 5584 5586 5584 5583 5581 5580 5579 5579 5579 5580 5581 5582 5583 5586 5588 5590 5592 5594 5597 5599 5602 5605 5607 5610 5613 5615 5617 5621
5614 5610 5606 5602 5598 5594 5591 5587 5583 5579 5576 5575 5574 5572 5571 5569 5568 5568 5569 5570 5570 5572 5573 5575 5578 5580 5582 5584 5587 5590 5593 5596 5600 5602 5605 5608 5610 5612
5608 5604 5600 5595 5591 5588 5585 5581 5577 5573 5568 5565 5563 5561 5559 5559 5557 5558 5559 5559 5560 5562 5564 5566 5567 5569 5572 5574 5577 5581 5584 5588 5592 5595 5598 5600 5603 5605
5601 5597 5593 5589 5585 5582 5578 5574 5570 5565 5561 5556 5554 5551 5549 5547 5546 5547 5548 5549 5550 5552 5554 5556 5557 5559 5562 5565 5568 5572 5575 5578 5582 5586 5589 5592 5595 5597
5594 5591 5587 5584 5580 5576 5572 5568 5563 5558 5554 5549 5546 5542 5540 5538 5537 5536 5537 5538 5541 5542 5543 5546 5548 5550 5552 5555 5559 5562 5566 5569 5573 5576 5579 5583 5586 5589
5588 5584 5581 5577 5573 5569 5565 5561 5557 5552 5548 5543 5539 5535 5533 5530 5528 5528 5527 5528 5531 5532 5532 5536 5537 5540 5543 5546 5550 5553 5557 5560 5563 5567 5569 5573 5577 5580
5581 5578 5575 5572 5567 5562 5559 5555 5551 5546 5542 5538 5534 5531 5528 5525 5522 5521 5520 5520 5522 5523 5524 5528 5529 5531 5534 5538 5541 5545 5548 5551 5555 5559 5562 5564 5568 5571
5577 5572 5568 5564 5561 5556 5552 5549 5544 5541 5537 5534 5530 5527 5524 5521 5517 5516 5514 5514 5515 5516 5516 5519 5522 5523 5527 5530 5533 5537 5540 5543 5546 5549 5553 5556 5560 5563
5572 5568 5563 5559 5556 5552 5548 5544 5540 5537 5535 5531 5527 5523 5520 5517 5514 5512 5510 5510 5512 5513 5511 5512 5515 5517 5520 5523 5526 5529 5532 5535 5538 5541 5544 5548 5551 5554
5568 5564 5559 5555 5552 5547 5543 5539 5536 5534 5531 5528 5524 5521 5517 5514 5511 5508 5506 5505 5506 5507 5507 5506 5509 5511 5515 5517 5519 5521 5524 5526 5529 5532 5536 5539 5542 5545
5564 5560 5556 5552 5547 5543 5539 5536 5532 5530 5527 5523 5520 5518 5515 5512 5509 5505 5503 5500 5500 5501 5502 5501 5503 5504 5507 5510 5512 5513 5516 5518 5521 5524 5527 5531 5534 5537
5561 5557 5552 5548 5544 5540 5537 5533 5530 5527 5524 5520 5517 5515 5512 5509 5506 5503 5500 5498 5496 5497 5497 5496 5498 5499 5501 5504 5506 5507 5508 5511 5514 5517 5520 5523 5526 5529
5558 5554 5549 5545 5542 5538 5535 5531 5527 5524 5521 5517 5514 5511 5508 5505 5503 5501 5499 5496 5495 5494 5494 5494 5494 5495 5496 5498 5499 5500 5502 5504 5506 5509 5513 5516 5519 5522
5556 5551 5547 5543 5539 5535 5532 5528 5524 5520 5516 5513 5510 5507 5504 5502 5500 5498 5496 5494 5493 5493 5492 5491 5491 5491 5492 5492 5493 5495 5496 5498 5500 5502 5505 5509 5512 5516
5554 5550 5546 5542 5538 5535 5530 5526 5522 5518 5513 5509 5506 5503 5501 5498 5496 5494 5492 5491 5490 5490 5490 5489 5489 5488 5487 5488 5490 5491 5491 5493 5494 5496 5499 5504 5507 5510
5552 5548 5543 5539 5535 5532 5527 5524 5520 5515 5510 5506 5502 5499 5497 5495 5494 5492 5490 5489 5489 5488 5487 5486 5485 5485 5485 5486 5484 5486 5487 5488 5490 5491 5494 5498 5503 5505
5552 5547 5542 5537 5533 5528 5524 5520 5516 5512 5507 5503 5500 5497 5495 5493 5492 5490 5489 5488 5487 5486 5485 5483 5482 5482 5483 5484 5484 5482 5483 5485 5486 5488 5491 5494 5498 5501
5551 5547 5541 5536 5531 5527 5522 5518 5514 5510 5506 5503 5500 5497 5495 5493 5491 5490 5488 5486 5485 5485 5484 5482 5480 5479 5479 5479 5480 5480 5479 5481 5484 5486 5488 5490 5492 5494
5552 5546 5541 5536 5531 5526 5521 5517 5513 5510 5506 5503 5500 5497 5494 5492 5490 5489 5487 5484 5483 5483 5483 5481 5479 5476 5475 5475 5476 5478 5478 5478 5479 5481 5484 5486 5489 5491
5551 5546 5541 5536 5531 5526 5521 5517 5513 5510 5506 5503 5500 5497 5494 5490 5488 5486 5485 5484 5483 5482 5481 5480 5478 5476 5475 5475 5475 5476 5476 5477 5477 5478 5479 5481 5484 5488
5552 5547 5542 5537 5532 5527 5522 5518 5514 5511 5507 5503 5500 5496 5493 5490 5487 5485 5483 5483 5482 5481 5480 5480 5478 5476 5474 5473 5473 5473 5474 5474 5475 5476 5477 5477 5479 5480